Terug naar catalogus

TIROS 3

ActiefWeerLEO
NORAD 162·PAYLOAD·🇺🇸 United States

Gelanceerd Jul 12, 1961 vanaf Cape Canaveral Space Force Station

Loading…

Volgende Passages (komende 24 uur)

TLE

VersSource: Space-Track

Epoch: Sep 14, 2026, 13:23 UTC

1 00162U 61017A   26257.55793045 -.00000030  00000-0  37598-4 0  9994
2 00162  47.9003 322.4327 0043725 350.8372   9.1720 14.45418603404706

Volg TIROS 3 in realtime met AllMySat

Download on the App Store